Kuchera_Ratio
0.0 0.0 0.0 0.0 0.0 0.0 0.0 0.0 0.0 0.0 0.0 0.0 0.0 0.0 0.0 0.0 0.0 0.0 0.0 0.0 0.0 0.0 0.0 0.0 0.0 0.0 0.0 0.0 0.0 0.0 0.0 0.0 0.0 0.0 0.0 0.0 0.0 0.0 0.0 0.0 0.0 0.0 0.0
0.0 0.0 0.0 0.0 0.0 0.0 0.0 0.0 0.0 0.0 0.0 0.0 0.0 0.0 0.0 0.0 0.0 0.0 0.0 0.0 0.0 0.0 0.0 0.0 0.0 0.0 0.0 0.0 0.0 0.0 0.0 0.0 0.0 0.0 0.0 0.0 0.0 0.0 0.0 0.0 0.0 0.0 0.0
0.0 0.0 0.0 0.0 0.0 0.0 0.0 0.0 0.0 0.0 0.0 0.0 0.0 0.0 0.0 0.0 0.0 0.0 0.0 0.0 0.0 0.0 0.0 0.0 0.0 0.0 0.0 0.0 0.0 0.0 0.0 0.0 0.0 0.0 0.0 0.0 0.0 0.0 0.0 0.0 0.0 0.0 0.0
0.0 0.0 0.0 0.0 0.0 0.0 0.0 0.0 0.0 0.0 0.0 0.0 0.0 0.0 0.0 0.0 0.0 0.0 0.0 0.0 0.0 0.0 0.0 0.0 0.0 0.0 0.0 0.0 0.0 0.0 0.0 0.0 0.0 0.0 0.0 0.0 0.0 0.0 0.0 0.0 0.0 0.0 0.0
0.0 0.0 0.0 0.0 0.0 0.0 0.0 0.0 0.0 0.0 0.0 0.0 0.0 0.0 0.0 0.0 0.0 0.0 0.0 0.0 0.0 0.0 0.0 0.0 0.1 0.5 0.9 1.2 1.0 0.5 0.5 0.7 1.6 1.9 1.7 1.0 0.0 0.0 0.0 0.0 0.0 0.0 0.0
0.0 0.0 0.0 0.0 0.0 0.0 0.0 0.0 0.0 0.0 0.0 0.0 0.0 0.0 0.0 0.0 0.0 0.0 0.0 0.0 0.2 0.6 0.8 0.9 1.7 1.7 2.5 2.7 2.8 2.5 1.9 1.9 1.9 2.2 2.4 3.3 5.0 4.4 1.8 1.9 0.4 2.6 0.0
0.0 0.0 0.0 0.0 0.0 0.0 0.0 0.0 0.0 0.0 0.0 0.0 0.0 0.0 0.0 0.0 0.0 0.2 1.2 2.1 2.6 3.3 3.3 2.9 3.4 3.7 2.6 2.3 2.8 3.6 3.6 3.4 3.3 3.4 3.6 3.4 3.5 2.8 2.9 5.8 5.9 5.3 0.8
0.0 0.0 0.0 0.0 0.0 0.0 0.0 0.0 0.0 0.0 0.0 0.0 0.0 0.0 0.0 0.0 1.1 1.7 2.1 3.1 3.5 4.2 4.1 3.7 3.2 3.0 2.6 2.7 3.3 4.3 4.3 4.4 4.5 4.4 4.3 4.2 4.0 3.7 3.8 4.8 7.3 10.5 7.2
0.0 0.0 0.0 0.0 0.0 0.0 0.0 0.0 0.0 0.0 0.0 0.0 0.6 1.1 1.3 1.3 1.9 2.7 3.2 3.8 4.5 2.5 3.5 3.0 3.2 3.3 3.2 3.5 4.4 5.4 5.1 5.1 5.1 5.4 5.4 5.2 5.3 5.0 4.7 4.5 4.2 7.7 12.7
0.0 0.0 0.0 0.0 0.0 0.0 0.0 0.0 0.0 0.0 0.0 0.2 0.5 1.1 1.6 2.0 2.5 3.3 3.4 2.5 2.2 1.3 1.7 2.3 3.5 3.7 3.5 3.9 4.9 6.9 6.8 6.7 6.4 6.8 6.7 6.6 6.8 6.5 6.4 6.2 5.9 6.0 8.5
0.0 1.3 1.9 3.3 3.9 2.8 2.3 2.2 1.2 0.1 0.6 0.9 1.5 2.1 3.1 3.7 1.8 2.1 2.3 2.9 1.4 2.0 4.1 4.5 5.3 5.3 5.7 4.5 6.8 7.1 6.8 8.1 8.4 8.3 8.5 8.4 8.3 8.1 7.7 7.4 7.5 7.6 8.4
3.1 5.6 6.8 6.4 6.2 6.4 6.8 6.4 5.7 5.7 5.9 4.2 4.5 5.1 4.8 1.9 5.7 5.0 3.8 2.4 4.6 3.0 3.5 3.6 4.4 5.0 5.8 6.4 7.4 8.5 8.9 8.6 9.7 9.6 9.5 9.7 5.1 9.8 9.7 9.3 9.3 8.9 9.0
8.8 9.5 9.6 9.9 8.9 7.8 8.9 10.1 8.9 6.0 8.3 7.8 7.4 6.7 6.0 6.6 6.3 6.3 5.3 4.4 4.6 4.5 4.5 5.6 7.2 7.7 7.8 8.6 9.2 10.4 10.2 9.4 9.0 9.1 10.6 10.6 10.9 11.5 11.3 11.1 11.0 10.5 7.5
9.9 10.9 11.8 12.3 12.0 12.0 11.7 10.0 8.7 9.1 7.9 7.3 8.1 7.8 6.9 5.4 5.3 4.1 4.3 4.7 4.5 6.2 6.8 7.6 8.5 8.6 8.5 8.2 9.6 9.7 11.2 11.5 10.1 9.7 10.5 11.6 11.7 11.8 12.1 11.7 11.8 10.8 11.8
11.7 12.2 12.7 13.2 14.0 13.5 13.1 11.8 11.6 11.2 10.5 10.6 9.5 9.2 8.1 6.9 6.0 7.9 7.2 6.7 7.2 7.7 8.6 9.1 8.8 9.3 9.4 6.9 9.7 9.6 11.9 12.3 12.5 11.7 9.9 9.2 7.9 4.8 7.0 9.5 12.2 12.3 12.6
13.1 13.1 13.3 13.5 14.4 15.0 13.8 13.2 13.3 12.7 12.2 12.4 12.1 10.0 8.9 8.4 9.1 9.4 9.8 9.1 9.6 10.1 9.9 10.4 10.2 9.9 7.3 4.4 2.7 3.2 10.1 11.0 11.9 12.6 12.3 10.9 6.6 6.7 1.6 0.9 1.3 6.9 12.4
14.1 14.3 14.6 14.2 14.2 13.9 14.1 15.3 14.7 13.8 13.5 13.3 12.3 11.4 10.5 11.1 11.0 10.4 11.0 11.1 11.1 10.5 11.4 11.0 11.5 12.4 11.7 4.8 3.3 2.6 5.8 10.5 12.1 13.0 12.7 11.8 7.8 6.7 10.6 5.9 2.6 2.6 2.9
14.4 14.4 14.6 14.3 14.1 14.8 14.7 14.8 14.8 14.9 14.8 14.2 14.1 13.3 13.3 13.2 12.7 12.6 12.8 12.8 12.5 12.9 12.8 12.4 12.0 12.5 12.0 5.6 4.1 3.2 6.5 11.7 12.9 13.3 13.6 14.0 13.5 11.4 11.2 12.1 12.4 12.2 11.7
15.1 15.5 15.5 15.4 15.2 15.5 15.4 15.8 15.4 15.4 15.5 15.4 15.1 14.0 14.1 14.5 14.4 14.4 14.9 14.5 14.3 14.7 14.7 13.7 14.6 14.7 14.6 8.1 6.0 5.9 10.5 12.0 13.5 13.0 13.7 14.1 13.8 9.5 4.8 8.5 12.3 12.3 11.5
15.2 15.7 15.5 15.4 16.0 15.8 15.8 16.5 16.7 16.7 16.8 15.9 15.6 14.7 14.6 15.1 15.9 15.9 15.8 15.5 15.5 13.8 13.2 12.9 14.1 13.1 13.7 9.6 7.0 7.0 10.2 13.4 13.0 13.9 12.9 7.6 9.4 6.8 4.7 8.9 12.2 13.0 12.1
15.6 15.3 16.5 17.4 17.2 16.4 16.9 17.6 17.4 17.8 16.6 15.0 14.8 14.8 15.1 15.8 16.4 16.2 16.1 16.0 16.0 15.5 16.0 15.7 16.0 16.0 14.9 14.9 8.9 7.3 10.4 11.9 12.5 12.7 12.9 11.9 7.3 5.4 3.1 3.2 11.8 11.6 10.3
17.8 17.4 18.2 18.1 17.0 16.9 17.6 18.5 18.8 16.6 16.2 16.2 16.1 16.4 17.1 16.3 14.2 15.8 16.1 16.3 16.9 17.3 17.6 17.7 17.9 16.1 15.3 12.2 10.5 8.2 7.4 7.5 11.6 12.7 12.1 12.0 7.5 5.9 3.9 3.9 2.9 4.7 4.9
19.0 18.1 18.8 19.1 18.0 17.8 18.0 18.9 18.0 17.5 17.8 18.4 18.5 18.6 17.7 16.1 15.5 16.6 17.0 17.3 17.7 18.6 19.3 18.8 18.2 17.3 14.5 14.1 11.1 9.2 7.9 7.0 9.6 9.6 9.1 7.8 7.5 6.2 5.6 3.3 3.0 4.1 9.3
19.8 19.1 19.9 20.2 20.5 19.0 17.7 19.6 19.2 18.3 19.2 20.0 20.2 19.6 19.8 18.5 18.4 17.2 17.3 18.2 19.4 20.2 19.4 18.9 18.4 18.1 16.8 15.8 14.2 13.1 13.4 11.4 11.3 10.6 12.4 12.1 8.8 6.4 7.6 8.2 8.6 12.8 12.7
19.8 19.7 20.8 20.2 20.0 20.2 20.6 20.7 18.4 19.9 20.5 20.4 20.8 20.7 19.3 20.4 20.4 19.2 19.6 19.3 18.7 18.2 18.6 18.5 18.2 18.6 18.8 16.0 12.9 13.0 14.0 14.6 13.1 12.9 14.8 14.9 14.3 14.9 13.8 12.7 13.2 13.9 13.6
20.3 20.3 20.4 20.4 20.9 21.0 20.9 20.3 20.1 20.1 22.0 22.1 20.8 21.6 20.7 21.5 20.3 21.2 21.3 16.8 15.3 14.1 13.3 12.7 13.4 14.1 12.8 11.5 11.0 10.5 9.2 8.3 8.3 13.4 16.0 16.1 15.5 15.5 14.8 14.7 15.1 14.6 13.8